Location: Austin
(30.3000°N, 97.7500°W)
Time: 07:05:45
(UTC-05:00)

ADEOS II - Pass Details

Date: 16 June 2025
Orbit: 794 x 796 km, 98.7° (Epoch: 08 July)

Event Time Altitude Azimuth Distance (km) Brightness Sun altitude
Rises 05:27:50 0° 347° (NNW) 3,296 5.6 -12.0°
Reaches altitude 10° 05:31:34 10° 319° (NW) 2,363 4.5 -11.4°
Maximum altitude 05:33:42 13° 295° (WNW) 2,181 4.1 -11.0°
Drops below altitude 10° 05:35:50 10° 270° (W) 2,359 4.0 -10.6°
Enters shadow 05:36:18 - 266° (W) 2,439 4.1 -10.5°
